Year,Month,Day,Hour,Minute,Value (Times are PST for temperature in C)
2015,09,26,00,00,10.20
2015,09,26,00,01,10.20
2015,09,26,00,02,10.20
2015,09,26,00,03,10.20
2015,09,26,00,04,10.20
2015,09,26,00,05,10.20
2015,09,26,00,06,10.20
2015,09,26,00,07,10.20
2015,09,26,00,08,10.20
2015,09,26,00,09,10.20
2015,09,26,00,10,10.20
2015,09,26,00,11,10.20
2015,09,26,00,12,10.10
2015,09,26,00,13,10.00
2015,09,26,00,14,10.00
2015,09,26,00,15,9.90
2015,09,26,00,16,9.90
2015,09,26,00,17,9.90
2015,09,26,00,18,9.80
2015,09,26,00,19,9.80
2015,09,26,00,20,9.90
2015,09,26,00,21,9.90
2015,09,26,00,22,9.90
2015,09,26,00,23,9.90
2015,09,26,00,24,9.90
2015,09,26,00,25,9.90
2015,09,26,00,26,9.80
2015,09,26,00,27,9.80
2015,09,26,00,28,9.70
2015,09,26,00,29,9.70
2015,09,26,00,30,9.70
2015,09,26,00,31,9.70
2015,09,26,00,32,9.80
2015,09,26,00,33,9.80
2015,09,26,00,34,9.80
2015,09,26,00,35,9.80
2015,09,26,00,36,9.80
2015,09,26,00,37,9.80
2015,09,26,00,38,9.80
2015,09,26,00,39,9.80
2015,09,26,00,40,9.80
2015,09,26,00,41,9.80
2015,09,26,00,42,9.80
2015,09,26,00,43,9.70
2015,09,26,00,44,9.70
2015,09,26,00,45,9.60
2015,09,26,00,46,9.60
2015,09,26,00,47,9.60
2015,09,26,00,48,9.50
2015,09,26,00,49,9.50
2015,09,26,00,50,9.50
2015,09,26,00,51,9.50
2015,09,26,00,52,9.50
2015,09,26,00,53,9.50
2015,09,26,00,54,9.40
2015,09,26,00,55,9.40
2015,09,26,00,56,9.40
2015,09,26,00,57,9.40
2015,09,26,00,58,9.30
2015,09,26,00,59,9.30
2015,09,26,01,00,9.30
2015,09,26,01,01,9.30
2015,09,26,01,02,9.20
2015,09,26,01,03,9.20
2015,09,26,01,04,9.20
2015,09,26,01,05,9.20
2015,09,26,01,06,9.20
2015,09,26,01,07,9.20
2015,09,26,01,08,9.20
2015,09,26,01,09,9.20
2015,09,26,01,10,9.20
2015,09,26,01,11,9.20
2015,09,26,01,12,9.10
2015,09,26,01,13,9.10
2015,09,26,01,14,9.10
2015,09,26,01,15,9.10
2015,09,26,01,16,9.10
2015,09,26,01,17,9.00
2015,09,26,01,18,9.00
2015,09,26,01,19,9.00
2015,09,26,01,20,9.00
2015,09,26,01,21,8.90
2015,09,26,01,22,8.90
2015,09,26,01,23,9.00
2015,09,26,01,24,9.00
2015,09,26,01,25,9.00
2015,09,26,01,26,9.10
2015,09,26,01,27,9.10
2015,09,26,01,28,9.20
2015,09,26,01,29,9.20
2015,09,26,01,30,9.20
2015,09,26,01,31,9.20
2015,09,26,01,32,9.30
2015,09,26,01,33,9.20
2015,09,26,01,34,9.30
2015,09,26,01,35,9.30
2015,09,26,01,36,9.30
2015,09,26,01,37,9.30
2015,09,26,01,38,9.40
2015,09,26,01,39,9.40
2015,09,26,01,40,9.40
2015,09,26,01,41,9.40
2015,09,26,01,42,9.40
2015,09,26,01,43,9.40
2015,09,26,01,44,9.50
2015,09,26,01,45,9.50
2015,09,26,01,46,9.50
2015,09,26,01,47,9.50
2015,09,26,01,48,9.50
2015,09,26,01,49,9.50
2015,09,26,01,50,9.50
2015,09,26,01,51,9.50
2015,09,26,01,52,9.50
2015,09,26,01,53,9.50
2015,09,26,01,54,9.50
2015,09,26,01,55,9.50
2015,09,26,01,56,9.40
2015,09,26,01,57,9.40
2015,09,26,01,58,9.40
2015,09,26,01,59,9.40
2015,09,26,02,00,9.40
2015,09,26,02,01,9.40
2015,09,26,02,02,9.40
2015,09,26,02,03,9.40
2015,09,26,02,04,9.50
2015,09,26,02,05,9.50
2015,09,26,02,06,9.50
2015,09,26,02,07,9.50
2015,09,26,02,08,9.50
2015,09,26,02,09,9.50
2015,09,26,02,10,9.50
2015,09,26,02,11,9.50
2015,09,26,02,12,9.60
2015,09,26,02,13,9.60
2015,09,26,02,14,9.60
2015,09,26,02,15,9.60
2015,09,26,02,16,9.60
2015,09,26,02,17,9.60
2015,09,26,02,18,9.70
2015,09,26,02,19,9.70
2015,09,26,02,20,9.80
2015,09,26,02,21,9.90
2015,09,26,02,22,9.90
2015,09,26,02,23,10.00
2015,09,26,02,24,10.00
2015,09,26,02,25,10.10
2015,09,26,02,26,10.10
2015,09,26,02,27,10.20
2015,09,26,02,28,10.20
2015,09,26,02,29,10.20
2015,09,26,02,30,10.20
2015,09,26,02,31,10.30
2015,09,26,02,32,10.30
2015,09,26,02,33,10.30
2015,09,26,02,34,10.30
2015,09,26,02,35,10.40
2015,09,26,02,36,10.40
2015,09,26,02,37,10.50
2015,09,26,02,38,10.50
2015,09,26,02,39,10.50
2015,09,26,02,40,10.50
2015,09,26,02,41,10.60
2015,09,26,02,42,10.60
2015,09,26,02,43,10.60
2015,09,26,02,44,10.60
2015,09,26,02,45,10.70
2015,09,26,02,46,10.70
2015,09,26,02,47,10.70
2015,09,26,02,48,10.70
2015,09,26,02,49,10.70
2015,09,26,02,50,10.70
2015,09,26,02,51,10.70
2015,09,26,02,52,10.70
2015,09,26,02,53,10.70
2015,09,26,02,54,10.70
2015,09,26,02,55,10.70
2015,09,26,02,56,10.70
2015,09,26,02,57,10.70
2015,09,26,02,58,10.70
2015,09,26,02,59,10.70
2015,09,26,03,00,10.80
2015,09,26,03,01,10.80
2015,09,26,03,02,10.80
2015,09,26,03,03,10.80
2015,09,26,03,04,10.80
2015,09,26,03,05,10.80
2015,09,26,03,06,10.80
2015,09,26,03,07,10.80
2015,09,26,03,08,10.80
2015,09,26,03,09,10.80
2015,09,26,03,10,10.70
2015,09,26,03,11,10.70
2015,09,26,03,12,10.70
2015,09,26,03,13,10.70
2015,09,26,03,14,10.70
2015,09,26,03,15,10.70
2015,09,26,03,16,10.70
2015,09,26,03,17,10.70
2015,09,26,03,18,10.70
2015,09,26,03,19,10.70
2015,09,26,03,20,10.60
2015,09,26,03,21,10.60
2015,09,26,03,22,10.60
2015,09,26,03,23,10.60
2015,09,26,03,24,10.60
2015,09,26,03,25,10.60
2015,09,26,03,26,10.60
2015,09,26,03,27,10.60
2015,09,26,03,28,10.60
2015,09,26,03,29,10.60
2015,09,26,03,30,10.60
2015,09,26,03,31,10.50
2015,09,26,03,32,10.50
2015,09,26,03,33,10.50
2015,09,26,03,34,10.50
2015,09,26,03,35,10.60
2015,09,26,03,36,10.60
2015,09,26,03,37,10.60
2015,09,26,03,38,10.60
2015,09,26,03,39,10.60
2015,09,26,03,40,10.60
2015,09,26,03,41,10.60
2015,09,26,03,42,10.60
2015,09,26,03,43,10.60
2015,09,26,03,44,10.60
2015,09,26,03,45,10.60
2015,09,26,03,46,10.60
2015,09,26,03,47,10.60
2015,09,26,03,48,10.60
2015,09,26,03,49,10.60
2015,09,26,03,50,10.60
2015,09,26,03,51,10.60
2015,09,26,03,52,10.60
2015,09,26,03,53,10.60
2015,09,26,03,54,10.50
2015,09,26,03,55,10.50
2015,09,26,03,56,10.50
2015,09,26,03,57,10.50
2015,09,26,03,58,10.50
2015,09,26,03,59,10.50
2015,09,26,04,00,10.50
2015,09,26,04,01,10.50
2015,09,26,04,02,10.50
2015,09,26,04,03,10.50
2015,09,26,04,04,10.50
2015,09,26,04,05,10.50
2015,09,26,04,06,10.50
2015,09,26,04,07,10.50
2015,09,26,04,08,10.50
2015,09,26,04,09,10.50
2015,09,26,04,10,10.50
2015,09,26,04,11,10.40
2015,09,26,04,12,10.40
2015,09,26,04,13,10.40
2015,09,26,04,14,10.40
2015,09,26,04,15,10.40
2015,09,26,04,16,10.30
2015,09,26,04,17,10.30
2015,09,26,04,18,10.30
2015,09,26,04,19,10.30
2015,09,26,04,20,10.30
2015,09,26,04,21,10.30
2015,09,26,04,22,10.30
2015,09,26,04,23,10.30
2015,09,26,04,24,10.30
2015,09,26,04,25,10.30
2015,09,26,04,26,10.30
2015,09,26,04,27,10.30
2015,09,26,04,28,10.30
2015,09,26,04,29,10.30
2015,09,26,04,30,10.30
2015,09,26,04,31,10.30
2015,09,26,04,32,10.30
2015,09,26,04,33,10.30
2015,09,26,04,34,10.30
2015,09,26,04,35,10.30
2015,09,26,04,36,10.30
2015,09,26,04,37,10.30
2015,09,26,04,38,10.30
2015,09,26,04,39,10.30
2015,09,26,04,40,10.30
2015,09,26,04,41,10.30
2015,09,26,04,42,10.30
2015,09,26,04,43,10.30
2015,09,26,04,44,10.30
2015,09,26,04,45,10.30
2015,09,26,04,46,10.30
2015,09,26,04,47,10.30
2015,09,26,04,48,10.30
2015,09,26,04,49,10.30
2015,09,26,04,50,10.30
2015,09,26,04,51,10.30
2015,09,26,04,52,10.30
2015,09,26,04,53,10.30
2015,09,26,04,54,10.30
2015,09,26,04,55,10.30
2015,09,26,04,56,10.30
2015,09,26,04,57,10.30
2015,09,26,04,58,10.30
2015,09,26,04,59,10.30
2015,09,26,05,00,10.30
2015,09,26,05,01,10.30
2015,09,26,05,02,10.20
2015,09,26,05,03,10.20
2015,09,26,05,04,10.10
2015,09,26,05,05,10.10
2015,09,26,05,06,10.10
2015,09,26,05,07,10.10
2015,09,26,05,08,10.00
2015,09,26,05,09,10.00
2015,09,26,05,10,10.00
2015,09,26,05,11,10.00
2015,09,26,05,12,10.00
2015,09,26,05,13,10.00
2015,09,26,05,14,9.90
2015,09,26,05,15,9.90
2015,09,26,05,16,9.90
2015,09,26,05,17,9.90
2015,09,26,05,18,10.00
2015,09,26,05,19,10.00
2015,09,26,05,20,10.00
2015,09,26,05,21,10.00
2015,09,26,05,22,10.10
2015,09,26,05,23,10.10
2015,09,26,05,24,10.10
2015,09,26,05,25,10.10
2015,09,26,05,26,10.10
2015,09,26,05,27,10.10
2015,09,26,05,28,10.00
2015,09,26,05,29,10.00
2015,09,26,05,30,10.00
2015,09,26,05,31,10.00
2015,09,26,05,32,9.90
2015,09,26,05,33,9.90
2015,09,26,05,34,9.90
2015,09,26,05,35,9.90
2015,09,26,05,36,9.80
2015,09,26,05,37,9.80
2015,09,26,05,38,9.80
2015,09,26,05,39,9.70
2015,09,26,05,40,9.70
2015,09,26,05,41,9.60
2015,09,26,05,42,9.60
2015,09,26,05,43,9.60
2015,09,26,05,44,9.50
2015,09,26,05,45,9.50
2015,09,26,05,46,9.40
2015,09,26,05,47,9.40
2015,09,26,05,48,9.40
2015,09,26,05,49,9.40
2015,09,26,05,50,9.30
2015,09,26,05,51,9.30
2015,09,26,05,52,9.30
2015,09,26,05,53,9.30
2015,09,26,05,54,9.30
2015,09,26,05,55,9.30
2015,09,26,05,56,9.30
2015,09,26,05,57,9.30
2015,09,26,05,58,9.30
2015,09,26,05,59,9.20
2015,09,26,06,00,9.20
2015,09,26,06,01,9.20
2015,09,26,06,02,9.20
2015,09,26,06,03,9.10
2015,09,26,06,04,9.10
2015,09,26,06,05,9.10
2015,09,26,06,06,9.10
2015,09,26,06,07,9.10
2015,09,26,06,08,9.00
2015,09,26,06,09,9.00
2015,09,26,06,10,9.00
2015,09,26,06,11,9.00
2015,09,26,06,12,8.90
2015,09,26,06,13,8.90
2015,09,26,06,14,8.90
2015,09,26,06,15,8.90
2015,09,26,06,16,8.90
2015,09,26,06,17,8.90
2015,09,26,06,18,8.90
2015,09,26,06,19,8.90
2015,09,26,06,20,8.90
2015,09,26,06,21,8.90
2015,09,26,06,22,8.90
2015,09,26,06,23,8.90
2015,09,26,06,24,8.90
2015,09,26,06,25,8.90
2015,09,26,06,26,8.90
2015,09,26,06,27,8.90
2015,09,26,06,28,8.90
2015,09,26,06,29,8.90
2015,09,26,06,30,8.80
2015,09,26,06,31,8.80
2015,09,26,06,32,8.80
2015,09,26,06,33,8.80
2015,09,26,06,34,8.80
2015,09,26,06,35,8.80
2015,09,26,06,36,8.80
2015,09,26,06,37,8.80
2015,09,26,06,38,8.80
2015,09,26,06,39,8.80
2015,09,26,06,40,8.80
2015,09,26,06,41,8.80
2015,09,26,06,42,8.80
2015,09,26,06,43,8.80
2015,09,26,06,44,8.80
2015,09,26,06,45,8.70
2015,09,26,06,46,8.70
2015,09,26,06,47,8.70
2015,09,26,06,48,8.70
2015,09,26,06,49,8.70
2015,09,26,06,50,8.70
2015,09,26,06,51,8.70
2015,09,26,06,52,8.70
2015,09,26,06,53,8.70
2015,09,26,06,54,8.70
2015,09,26,06,55,8.70
2015,09,26,06,56,8.70
2015,09,26,06,57,8.70
2015,09,26,06,58,8.70
2015,09,26,06,59,8.70
2015,09,26,07,00,8.70
2015,09,26,07,01,8.70
2015,09,26,07,02,8.70
2015,09,26,07,03,8.60
2015,09,26,07,04,8.60
2015,09,26,07,05,8.60
2015,09,26,07,06,8.60
2015,09,26,07,07,8.60
2015,09,26,07,08,8.60
2015,09,26,07,09,8.60
2015,09,26,07,10,8.70
2015,09,26,07,11,8.70
2015,09,26,07,12,8.70
2015,09,26,07,13,8.70
2015,09,26,07,14,8.60
2015,09,26,07,15,8.60
2015,09,26,07,16,8.60
2015,09,26,07,17,8.60
2015,09,26,07,18,8.60
2015,09,26,07,19,8.60
2015,09,26,07,20,8.60
2015,09,26,07,21,8.60
2015,09,26,07,22,8.60
2015,09,26,07,23,8.50
2015,09,26,07,24,8.50
2015,09,26,07,25,8.50
2015,09,26,07,26,8.40
2015,09,26,07,27,8.40
2015,09,26,07,28,8.40
2015,09,26,07,29,8.30
2015,09,26,07,30,8.30
2015,09,26,07,31,8.30
2015,09,26,07,32,8.30
2015,09,26,07,33,8.30
2015,09,26,07,34,8.20
2015,09,26,07,35,8.20
2015,09,26,07,36,8.20
2015,09,26,07,37,8.20
2015,09,26,07,38,8.10
2015,09,26,07,39,8.10
2015,09,26,07,40,8.10
2015,09,26,07,41,8.10
2015,09,26,07,42,8.10
2015,09,26,07,43,8.00
2015,09,26,07,44,8.00
2015,09,26,07,45,8.00
2015,09,26,07,46,8.00
2015,09,26,07,47,8.10
2015,09,26,07,48,8.10
2015,09,26,07,49,8.10
2015,09,26,07,50,8.10
2015,09,26,07,51,8.10
2015,09,26,07,52,8.10
2015,09,26,07,53,8.10
2015,09,26,07,54,8.10
2015,09,26,07,55,8.10
2015,09,26,07,56,8.10
2015,09,26,07,57,8.10
2015,09,26,07,58,8.10
2015,09,26,07,59,8.10
2015,09,26,08,00,8.20
2015,09,26,08,01,8.20
2015,09,26,08,02,8.20
2015,09,26,08,03,8.30
2015,09,26,08,04,8.30
2015,09,26,08,05,8.30
2015,09,26,08,06,8.40
2015,09,26,08,07,8.40
2015,09,26,08,08,8.50
2015,09,26,08,09,8.50
2015,09,26,08,10,8.60
2015,09,26,08,11,8.60
2015,09,26,08,12,8.70
2015,09,26,08,13,8.80
2015,09,26,08,14,8.80
2015,09,26,08,15,8.90
2015,09,26,08,16,8.90
2015,09,26,08,17,9.00
2015,09,26,08,18,9.00
2015,09,26,08,19,9.10
2015,09,26,08,20,9.10
2015,09,26,08,21,9.10
2015,09,26,08,22,9.10
2015,09,26,08,23,9.20
2015,09,26,08,24,9.20
2015,09,26,08,25,9.20
2015,09,26,08,26,9.30
2015,09,26,08,27,9.30
2015,09,26,08,28,9.30
2015,09,26,08,29,9.40
2015,09,26,08,30,9.40
2015,09,26,08,31,9.40
2015,09,26,08,32,9.50
2015,09,26,08,33,9.50
2015,09,26,08,34,9.50
2015,09,26,08,35,9.60
2015,09,26,08,36,9.60
2015,09,26,08,37,9.60
2015,09,26,08,38,9.70
2015,09,26,08,39,9.70
2015,09,26,08,40,9.70
2015,09,26,08,41,9.80
2015,09,26,08,42,9.80
2015,09,26,08,43,9.80
2015,09,26,08,44,9.90
2015,09,26,08,45,9.90
2015,09,26,08,46,10.00
2015,09,26,08,47,10.00
2015,09,26,08,48,10.00
2015,09,26,08,49,10.10
2015,09,26,08,50,10.10
2015,09,26,08,51,10.20
2015,09,26,08,52,10.20
2015,09,26,08,53,10.30
2015,09,26,08,54,10.30
2015,09,26,08,55,10.30
2015,09,26,08,56,10.40
2015,09,26,08,57,10.40
2015,09,26,08,58,10.40
2015,09,26,08,59,10.50
2015,09,26,09,00,10.50
2015,09,26,09,01,10.60
2015,09,26,09,02,10.60
2015,09,26,09,03,10.60
2015,09,26,09,04,10.60
2015,09,26,09,05,10.70
2015,09,26,09,06,10.70
2015,09,26,09,07,10.70
2015,09,26,09,08,10.80
2015,09,26,09,09,10.80
2015,09,26,09,10,10.80
2015,09,26,09,11,10.90
2015,09,26,09,12,10.90
2015,09,26,09,13,10.90
2015,09,26,09,14,11.00
2015,09,26,09,15,11.00
2015,09,26,09,16,11.10
2015,09,26,09,17,11.10
2015,09,26,09,18,11.10
2015,09,26,09,19,11.10
2015,09,26,09,20,11.20
2015,09,26,09,21,11.20
2015,09,26,09,22,11.20
2015,09,26,09,23,11.20
2015,09,26,09,24,11.20
2015,09,26,09,25,11.30
2015,09,26,09,26,11.30
2015,09,26,09,27,11.30
2015,09,26,09,28,11.30
2015,09,26,09,29,11.30
2015,09,26,09,30,11.30
2015,09,26,09,31,11.40
2015,09,26,09,32,11.40
2015,09,26,09,33,11.40
2015,09,26,09,34,11.50
2015,09,26,09,35,11.50
2015,09,26,09,36,11.60
2015,09,26,09,37,11.60
2015,09,26,09,38,11.70
2015,09,26,09,39,11.80
2015,09,26,09,40,11.90
2015,09,26,09,41,12.00
2015,09,26,09,42,12.10
2015,09,26,09,43,12.20
2015,09,26,09,44,12.30
2015,09,26,09,45,12.30
2015,09,26,09,46,12.40
2015,09,26,09,47,12.40
2015,09,26,09,48,12.40
2015,09,26,09,49,12.50
2015,09,26,09,50,12.50
2015,09,26,09,51,12.50
2015,09,26,09,52,12.60
2015,09,26,09,53,12.60
2015,09,26,09,54,12.70
2015,09,26,09,55,12.70
2015,09,26,09,56,12.80
2015,09,26,09,57,12.80
2015,09,26,09,58,12.80
2015,09,26,09,59,12.80
2015,09,26,10,00,12.80
2015,09,26,10,01,12.90
2015,09,26,10,02,12.90
2015,09,26,10,03,12.90
2015,09,26,10,04,12.90
2015,09,26,10,05,13.00
2015,09,26,10,06,13.00
2015,09,26,10,07,13.00
2015,09,26,10,08,13.00
2015,09,26,10,09,13.00
2015,09,26,10,10,13.00
2015,09,26,10,11,13.10
2015,09,26,10,12,13.10
2015,09,26,10,13,13.10
2015,09,26,10,14,13.20
2015,09,26,10,15,13.20
2015,09,26,10,16,13.20
2015,09,26,10,17,13.20
2015,09,26,10,18,13.20
2015,09,26,10,19,13.20
2015,09,26,10,20,13.20
2015,09,26,10,21,13.20
2015,09,26,10,22,13.20
2015,09,26,10,23,13.30
2015,09,26,10,24,13.30
2015,09,26,10,25,13.30
2015,09,26,10,26,13.30
2015,09,26,10,27,13.30
2015,09,26,10,28,13.30
2015,09,26,10,29,13.30
2015,09,26,10,30,13.30
2015,09,26,10,31,13.40
2015,09,26,10,32,13.40
2015,09,26,10,33,13.40
2015,09,26,10,34,13.50
2015,09,26,10,35,13.50
2015,09,26,10,36,13.60
2015,09,26,10,37,13.70
2015,09,26,10,38,13.80
2015,09,26,10,39,13.80
2015,09,26,10,40,13.90
2015,09,26,10,41,13.90
2015,09,26,10,42,14.00
2015,09,26,10,43,14.10
2015,09,26,10,44,14.10
2015,09,26,10,45,14.10
2015,09,26,10,46,14.00
2015,09,26,10,47,14.00
2015,09,26,10,48,14.00
2015,09,26,10,49,14.10
2015,09,26,10,50,14.10
2015,09,26,10,51,14.10
2015,09,26,10,52,14.10
2015,09,26,10,53,14.20
2015,09,26,10,54,14.20
2015,09,26,10,55,14.10
2015,09,26,10,56,14.00
2015,09,26,10,57,13.90
2015,09,26,10,58,13.80
2015,09,26,10,59,13.70
2015,09,26,11,00,13.70
2015,09,26,11,01,13.60
2015,09,26,11,02,13.50
2015,09,26,11,03,13.50
2015,09,26,11,04,13.40
2015,09,26,11,05,13.40
2015,09,26,11,06,13.40
2015,09,26,11,07,13.40
2015,09,26,11,08,13.50
2015,09,26,11,09,13.60
2015,09,26,11,10,13.60
2015,09,26,11,11,13.60
2015,09,26,11,12,13.60
2015,09,26,11,13,13.50
2015,09,26,11,14,13.50
2015,09,26,11,15,13.40
2015,09,26,11,16,13.40
2015,09,26,11,17,13.30
2015,09,26,11,18,13.30
2015,09,26,11,19,13.40
2015,09,26,11,20,13.40
2015,09,26,11,21,13.30
2015,09,26,11,22,13.30
2015,09,26,11,23,13.30
2015,09,26,11,24,13.30
2015,09,26,11,25,13.30
2015,09,26,11,26,13.40
2015,09,26,11,27,13.50
2015,09,26,11,28,13.60
2015,09,26,11,29,13.70
2015,09,26,11,30,13.60
2015,09,26,11,31,13.60
2015,09,26,11,32,13.50
2015,09,26,11,33,13.50
2015,09,26,11,34,13.50
2015,09,26,11,35,13.50
2015,09,26,11,36,13.50
2015,09,26,11,37,13.60
2015,09,26,11,38,13.60
2015,09,26,11,39,13.60
2015,09,26,11,40,13.50
2015,09,26,11,41,13.50
2015,09,26,11,42,13.50
2015,09,26,11,43,13.40
2015,09,26,11,44,13.40
2015,09,26,11,45,13.40
2015,09,26,11,46,13.40
2015,09,26,11,47,13.50
2015,09,26,11,48,13.50
2015,09,26,11,49,13.50
2015,09,26,11,50,13.60
2015,09,26,11,51,13.60
2015,09,26,11,52,13.60
2015,09,26,11,53,13.60
2015,09,26,11,54,13.70
2015,09,26,11,55,13.70
2015,09,26,11,56,13.60
2015,09,26,11,57,13.60
2015,09,26,11,58,13.60
2015,09,26,11,59,13.60
2015,09,26,12,00,13.60
2015,09,26,12,01,13.60
2015,09,26,12,02,13.60
2015,09,26,12,03,13.60
2015,09,26,12,04,13.60
2015,09,26,12,05,13.60
2015,09,26,12,06,13.60
2015,09,26,12,07,13.70
2015,09,26,12,08,13.80
2015,09,26,12,09,13.80
2015,09,26,12,10,13.80
2015,09,26,12,11,13.90
2015,09,26,12,12,13.90
2015,09,26,12,13,13.90
2015,09,26,12,14,13.90
2015,09,26,12,15,13.90
2015,09,26,12,16,13.90
2015,09,26,12,17,13.90
2015,09,26,12,18,13.90
2015,09,26,12,19,13.90
2015,09,26,12,20,13.90
2015,09,26,12,21,13.90
2015,09,26,12,22,13.90
2015,09,26,12,23,13.80
2015,09,26,12,24,13.80
2015,09,26,12,25,13.80
2015,09,26,12,26,13.80
2015,09,26,12,27,13.90
2015,09,26,12,28,14.00
2015,09,26,12,29,14.10
2015,09,26,12,30,14.10
2015,09,26,12,31,14.10
2015,09,26,12,32,14.20
2015,09,26,12,33,14.20
2015,09,26,12,34,14.20
2015,09,26,12,35,14.20
2015,09,26,12,36,14.20
2015,09,26,12,37,14.20
2015,09,26,12,38,14.20
2015,09,26,12,39,14.20
2015,09,26,12,40,14.20
2015,09,26,12,41,14.30
2015,09,26,12,42,14.30
2015,09,26,12,43,14.30
2015,09,26,12,44,14.30
2015,09,26,12,45,14.30
2015,09,26,12,46,14.30
2015,09,26,12,47,14.30
2015,09,26,12,48,14.30
2015,09,26,12,49,14.30
2015,09,26,12,50,14.20
2015,09,26,12,51,14.20
2015,09,26,12,52,14.10
2015,09,26,12,53,14.10
2015,09,26,12,54,14.10
2015,09,26,12,55,14.20
2015,09,26,12,56,14.20
2015,09,26,12,57,14.30
2015,09,26,12,58,14.30
2015,09,26,12,59,14.30
2015,09,26,13,00,14.30
2015,09,26,13,01,14.40
2015,09,26,13,02,14.40
2015,09,26,13,03,14.40
2015,09,26,13,04,14.40
2015,09,26,13,05,14.40
2015,09,26,13,06,14.40
2015,09,26,13,07,14.40
2015,09,26,13,08,14.40
2015,09,26,13,09,14.50
2015,09,26,13,10,14.50
2015,09,26,13,11,14.40
2015,09,26,13,12,14.40
2015,09,26,13,13,14.40
2015,09,26,13,14,14.50
2015,09,26,13,15,14.50
2015,09,26,13,16,14.50
2015,09,26,13,17,14.50
2015,09,26,13,18,14.50
2015,09,26,13,19,14.60
2015,09,26,13,20,14.60
2015,09,26,13,21,14.60
2015,09,26,13,22,14.50
2015,09,26,13,23,14.50
2015,09,26,13,24,14.50
2015,09,26,13,25,14.50
2015,09,26,13,26,14.50
2015,09,26,13,27,14.50
2015,09,26,13,28,14.50
2015,09,26,13,29,14.50
2015,09,26,13,30,14.50
2015,09,26,13,31,14.60
2015,09,26,13,32,14.60
2015,09,26,13,33,14.60
2015,09,26,13,34,14.60
2015,09,26,13,35,14.70
2015,09,26,13,36,14.70
2015,09,26,13,37,14.70
2015,09,26,13,38,14.70
2015,09,26,13,39,14.70
2015,09,26,13,40,14.70
2015,09,26,13,41,14.70
2015,09,26,13,42,14.70
2015,09,26,13,43,14.70
2015,09,26,13,44,14.70
2015,09,26,13,45,14.70
2015,09,26,13,46,14.70
2015,09,26,13,47,14.70
2015,09,26,13,48,14.70
2015,09,26,13,49,14.70
2015,09,26,13,50,14.80
2015,09,26,13,51,14.80
2015,09,26,13,52,14.80
2015,09,26,13,53,14.80
2015,09,26,13,54,14.80
2015,09,26,13,55,14.80
2015,09,26,13,56,14.80
2015,09,26,13,57,14.90
2015,09,26,13,58,14.90
2015,09,26,13,59,14.90
2015,09,26,14,00,14.90
2015,09,26,14,01,14.90
2015,09,26,14,02,14.90
2015,09,26,14,03,14.90
2015,09,26,14,04,14.90
2015,09,26,14,05,14.90
2015,09,26,14,06,14.90
2015,09,26,14,07,14.90
2015,09,26,14,08,15.00
2015,09,26,14,09,15.00
2015,09,26,14,10,15.00
2015,09,26,14,11,15.10
2015,09,26,14,12,15.10
2015,09,26,14,13,15.10
2015,09,26,14,14,15.20
2015,09,26,14,15,15.20
2015,09,26,14,16,15.10
2015,09,26,14,17,15.10
2015,09,26,14,18,15.00
2015,09,26,14,19,14.90
2015,09,26,14,20,14.90
2015,09,26,14,21,14.90
2015,09,26,14,22,14.90
2015,09,26,14,23,14.90
2015,09,26,14,24,14.80
2015,09,26,14,25,14.90
2015,09,26,14,26,14.90
2015,09,26,14,27,15.00
2015,09,26,14,28,15.00
2015,09,26,14,29,15.00
2015,09,26,14,30,15.10
2015,09,26,14,31,15.10
2015,09,26,14,32,15.10
2015,09,26,14,33,15.10
2015,09,26,14,34,15.10
2015,09,26,14,35,15.10
2015,09,26,14,36,15.10
2015,09,26,14,37,15.10
2015,09,26,14,38,15.10
2015,09,26,14,39,15.20
2015,09,26,14,40,15.20
2015,09,26,14,41,15.20
2015,09,26,14,42,15.20
2015,09,26,14,43,15.20
2015,09,26,14,44,15.10
2015,09,26,14,45,15.10
2015,09,26,14,46,15.10
2015,09,26,14,47,15.10
2015,09,26,14,48,15.10
2015,09,26,14,49,15.10
2015,09,26,14,50,15.10
2015,09,26,14,51,15.10
2015,09,26,14,52,15.10
2015,09,26,14,53,15.10
2015,09,26,14,54,15.00
2015,09,26,14,55,15.10
2015,09,26,14,56,15.10
2015,09,26,14,57,15.10
2015,09,26,14,58,15.10
2015,09,26,14,59,15.10
2015,09,26,15,00,15.20
2015,09,26,15,01,15.20
2015,09,26,15,02,15.20
2015,09,26,15,03,15.30
2015,09,26,15,04,15.30
2015,09,26,15,05,15.30
2015,09,26,15,06,15.30
2015,09,26,15,07,15.30
2015,09,26,15,08,15.30
2015,09,26,15,09,15.30
2015,09,26,15,10,15.30
2015,09,26,15,11,15.30
2015,09,26,15,12,15.20
2015,09,26,15,13,15.20
2015,09,26,15,14,15.20
2015,09,26,15,15,15.20
2015,09,26,15,16,15.20
2015,09,26,15,17,15.20
2015,09,26,15,18,15.20
2015,09,26,15,19,15.30
2015,09,26,15,20,15.30
2015,09,26,15,21,15.40
2015,09,26,15,22,15.40
2015,09,26,15,23,15.40
2015,09,26,15,24,15.30
2015,09,26,15,25,15.30
2015,09,26,15,26,15.30
2015,09,26,15,27,15.30
2015,09,26,15,28,15.30
2015,09,26,15,29,15.40
2015,09,26,15,30,15.40
2015,09,26,15,31,15.40
2015,09,26,15,32,15.40
2015,09,26,15,33,15.50
2015,09,26,15,34,15.50
2015,09,26,15,35,15.40
2015,09,26,15,36,15.40
2015,09,26,15,37,15.40
2015,09,26,15,38,15.40
2015,09,26,15,39,15.40
2015,09,26,15,40,15.40
2015,09,26,15,41,15.40
2015,09,26,15,42,15.40
2015,09,26,15,43,15.30
2015,09,26,15,44,15.40
2015,09,26,15,45,15.40
2015,09,26,15,46,15.40
2015,09,26,15,47,15.40
2015,09,26,15,48,15.40
2015,09,26,15,49,15.40
2015,09,26,15,50,15.40
2015,09,26,15,51,15.40
2015,09,26,15,52,15.50
2015,09,26,15,53,15.50
2015,09,26,15,54,15.50
2015,09,26,15,55,15.50
2015,09,26,15,56,15.40
2015,09,26,15,57,15.40
2015,09,26,15,58,15.40
2015,09,26,15,59,15.40
2015,09,26,16,00,15.40
2015,09,26,16,01,15.50
2015,09,26,16,02,15.50
2015,09,26,16,03,15.50
2015,09,26,16,04,15.50
2015,09,26,16,05,15.50
2015,09,26,16,06,15.50
2015,09,26,16,07,15.50
2015,09,26,16,08,15.50
2015,09,26,16,09,15.50
2015,09,26,16,10,15.50
2015,09,26,16,11,15.50
2015,09,26,16,12,15.50
2015,09,26,16,13,15.50
2015,09,26,16,14,15.50
2015,09,26,16,15,15.60
2015,09,26,16,16,15.60
2015,09,26,16,17,15.60
2015,09,26,16,18,15.60
2015,09,26,16,19,15.60
2015,09,26,16,20,15.60
2015,09,26,16,21,15.50
2015,09,26,16,22,15.50
2015,09,26,16,23,15.50
2015,09,26,16,24,15.50
2015,09,26,16,25,15.50
2015,09,26,16,26,15.40
2015,09,26,16,27,15.40
2015,09,26,16,28,15.30
2015,09,26,16,29,15.30
2015,09,26,16,30,15.20
2015,09,26,16,31,15.20
2015,09,26,16,32,15.20
2015,09,26,16,33,15.20
2015,09,26,16,34,15.20
2015,09,26,16,35,15.20
2015,09,26,16,36,15.20
2015,09,26,16,37,15.30
2015,09,26,16,38,15.30
2015,09,26,16,39,15.30
2015,09,26,16,40,15.30
2015,09,26,16,41,15.30
2015,09,26,16,42,15.40
2015,09,26,16,43,15.40
2015,09,26,16,44,15.40
2015,09,26,16,45,15.40
2015,09,26,16,46,15.50
2015,09,26,16,47,15.50
2015,09,26,16,48,15.50
2015,09,26,16,49,15.50
2015,09,26,16,50,15.50
2015,09,26,16,51,15.60
2015,09,26,16,52,15.50
2015,09,26,16,53,15.50
2015,09,26,16,54,15.40
2015,09,26,16,55,15.40
2015,09,26,16,56,15.40
2015,09,26,16,57,15.40
2015,09,26,16,58,15.30
2015,09,26,16,59,15.30
2015,09,26,17,00,15.40
2015,09,26,17,01,15.40
2015,09,26,17,02,15.40
2015,09,26,17,03,15.40
2015,09,26,17,04,15.40
2015,09,26,17,05,15.40
2015,09,26,17,06,15.40
2015,09,26,17,07,15.40
2015,09,26,17,08,15.40
2015,09,26,17,09,15.40
2015,09,26,17,10,15.40
2015,09,26,17,11,15.40
2015,09,26,17,12,15.40
2015,09,26,17,13,15.40
2015,09,26,17,14,15.40
2015,09,26,17,15,15.40
2015,09,26,17,16,15.50
2015,09,26,17,17,15.50
2015,09,26,17,18,15.50
2015,09,26,17,19,15.50
2015,09,26,17,20,15.50
2015,09,26,17,21,15.50
2015,09,26,17,22,15.50
2015,09,26,17,23,15.40
2015,09,26,17,24,15.40
2015,09,26,17,25,15.40
2015,09,26,17,26,15.50
2015,09,26,17,27,15.50
2015,09,26,17,28,15.50
2015,09,26,17,29,15.50
2015,09,26,17,30,15.50
2015,09,26,17,31,15.40
2015,09,26,17,32,15.40
2015,09,26,17,33,15.40